Tracking 27380 objects as of 6-Jun-2023
HD Live streaming from Space Station
objects crossing your sky now

SL-14 R/B

Track SL-14 R/B now!
10-day predictions


NORAD ID: 11087
Int'l Code: 1978-100D
Perigee: 1,693.8 km
Apogee: 1,708.8 km
Inclination: 82.5 °
Period: 120.3 minutes
Semi major axis: 8072 km
RCS: 5.2593 m2 (large)
Launch date: October 26, 1978
Source: Commonwealth of Independent States (former USSR) (CIS)
Launch site: PLESETSK MISSILE AND SPACE COMPLEX (PKMTR)

Note: This is a ROCKET BODY
Your satellite tracking list
Your tracking list is empty




NASA's NSSDC Master Catalog

Two Line Element Set (TLE):
1 11087U 78100D   23156.52488411 -.00000004  00000-0 -15811-3 0  9998
2 11087  82.5471 303.4364 0009275   7.3612  57.9780 11.97028777949222
Source of the keplerian elements: AFSPC